Theta_e
317 317 316 316 316 316 315 316 316 317 318 318 318 319 320 320 320 321 321 322 322 322 323 323 324 324 325 326 326 326 321 309 302 304 305 307 319 333 337 338 335 333 327 300 300 300 299 295 298 296 296 296 297 298 297 298 294 290 285 282 284 280 284 287 288 288 287 289 291 291 290 291 291 293 296 295 294 292 293 295 294 296 299 297 297 298 300 304
317 316 316 316 316 314 315 314 315 316 317 317 317 318 319 319 320 320 320 321 321 322 322 323 324 324 325 325 326 325 313 308 305 302 304 317 336 335 337 336 336 331 321 301 300 297 299 297 297 294 296 296 297 298 297 297 293 287 282 280 285 283 288 289 287 290 290 292 290 290 289 291 292 292 295 293 292 291 294 294 293 295 296 301 301 299 304 309
316 316 315 315 315 315 315 315 314 315 316 316 317 318 318 318 319 320 320 321 321 322 322 323 324 324 325 325 324 323 311 302 305 303 304 331 335 338 337 335 333 323 305 306 301 299 301 300 298 295 292 295 293 297 293 296 296 289 286 288 280 286 287 287 287 290 290 289 291 291 291 291 293 293 293 294 290 291 292 291 293 293 295 297 299 301 302 305
316 315 315 314 314 315 315 315 316 316 316 316 316 317 318 318 319 319 320 320 321 322 322 323 324 324 324 325 324 316 302 301 299 301 302 327 334 336 336 334 327 314 303 302 301 299 294 296 293 297 295 290 292 292 293 293 294 290 285 281 290 286 292 293 287 289 288 290 291 290 290 292 292 291 293 290 292 291 291 291 296 295 294 299 298 298 299 303
316 316 314 314 314 314 315 315 315 316 316 316 317 317 317 318 319 319 319 320 321 322 322 323 323 324 324 324 320 310 299 292 297 301 304 329 333 335 334 332 323 300 304 301 300 297 296 297 296 292 294 297 289 290 291 291 290 288 290 288 288 286 292 293 288 289 288 288 289 288 292 292 293 293 291 291 292 292 292 294 294 294 295 300 299 299 297 301
316 316 314 313 314 314 315 315 315 315 316 316 316 316 317 317 318 319 319 320 321 321 322 323 324 324 324 322 312 303 296 287 299 300 328 330 333 335 333 332 322 301 300 299 300 296 302 297 296 293 289 290 290 291 292 291 292 294 291 288 286 287 293 291 290 290 288 289 289 289 292 292 293 292 289 290 294 292 291 291 291 292 295 301 300 298 299 300
316 315 314 314 315 314 315 315 315 315 315 315 315 316 317 318 318 318 319 320 321 321 322 323 323 324 323 319 305 298 297 297 300 307 325 330 327 330 323 320 316 299 301 302 298 300 293 295 294 292 290 291 289 291 292 291 289 288 292 289 292 287 293 292 293 288 288 290 290 290 292 294 291 292 290 289 292 290 291 293 292 292 298 300 299 299 300 300
315 314 314 313 314 314 314 314 314 314 315 315 315 316 316 317 318 318 318 320 320 321 322 322 323 323 322 303 305 295 296 299 302 308 321 327 310 311 316 303 302 302 302 300 301 300 296 295 295 291 289 291 292 292 291 295 290 292 292 291 292 289 289 289 289 288 288 289 290 290 294 293 290 291 290 290 293 293 294 295 296 297 298 297 298 298 298 297
315 314 313 313 313 313 312 313 314 313 315 316 316 316 316 317 317 317 318 319 320 321 322 323 322 322 321 301 296 295 292 300 307 311 309 304 303 303 305 307 300 302 298 297 297 301 301 295 295 293 295 291 293 293 289 293 291 292 293 291 290 292 289 289 292 290 289 291 290 294 290 289 289 290 292 295 290 292 294 295 296 297 297 297 298 297 297 297
315 315 314 313 313 312 312 312 314 315 316 316 316 316 316 317 317 317 318 319 320 320 322 322 322 320 305 300 293 290 296 309 310 309 304 303 302 303 304 303 300 301 303 300 299 298 300 296 298 296 293 293 293 292 290 292 293 291 290 290 292 291 289 291 293 291 290 292 290 293 290 291 290 292 292 291 291 292 295 294 294 296 297 296 296 296 296 297
315 316 314 313 313 312 312 313 314 315 315 316 316 316 316 316 316 317 317 319 320 321 322 322 321 314 302 298 294 290 304 311 310 306 304 304 302 303 304 303 303 300 301 299 300 300 299 296 296 296 298 295 293 291 291 294 291 290 290 289 291 288 290 289 290 290 291 294 288 292 291 289 291 290 293 294 292 293 294 293 293 293 295 295 295 296 295 296
315 316 316 315 314 313 314 315 314 314 315 316 317 317 317 317 317 316 317 318 320 321 322 322 318 311 299 295 293 295 305 309 307 306 306 304 305 305 303 304 302 304 304 302 302 302 300 299 298 298 296 296 291 292 293 292 292 291 291 294 289 287 293 291 291 290 291 293 289 290 292 289 289 290 292 290 292 293 292 292 292 293 292 292 293 294 295 296
315 315 316 316 315 315 315 316 316 315 316 317 317 318 318 318 317 317 317 318 320 321 322 322 315 309 302 296 297 302 303 305 306 305 306 305 304 303 302 301 303 303 304 301 302 303 299 297 296 298 295 292 291 292 293 292 290 292 290 289 290 286 287 289 290 289 291 293 288 292 286 287 289 294 291 292 291 291 292 291 292 292 291 291 291 294 294 294
317 315 315 316 316 316 316 316 317 316 316 317 319 319 318 318 317 317 317 318 320 322 322 319 312 301 298 292 300 308 308 308 308 307 305 305 304 305 303 302 301 301 302 302 301 299 300 298 298 297 297 294 294 296 293 288 289 292 289 285 285 285 284 288 288 289 291 290 289 292 287 289 290 288 288 289 291 292 293 293 292 292 291 291 292 293 294 295
317 316 316 315 316 316 316 316 317 317 318 319 320 319 319 318 317 317 318 319 321 322 321 317 305 303 295 298 302 308 322 308 309 306 305 305 303 303 304 301 302 300 300 301 301 300 299 300 298 293 295 293 295 294 286 284 285 285 288 284 279 284 282 285 289 289 291 291 289 292 285 290 294 291 288 289 290 290 293 292 292 291 291 291 291 292 293 295
318 317 316 316 315 316 315 315 316 316 316 318 319 319 318 318 317 318 319 320 322 320 310 309 304 297 293 294 303 316 308 307 307 306 304 303 304 303 302 301 300 301 299 300 300 299 299 299 295 294 294 294 289 285 281 285 285 280 286 282 284 283 282 287 290 287 289 290 291 291 289 286 289 288 287 290 290 290 290 291 290 291 291 291 292 292 293 293
318 317 317 316 316 316 316 316 317 315 316 317 319 318 319 318 319 319 320 320 313 312 308 305 301 301 293 297 306 302 301 304 305 305 305 304 303 302 300 299 299 299 298 301 299 301 298 296 293 293 289 289 285 284 285 281 281 283 282 284 280 284 283 285 286 289 287 290 289 289 287 289 291 288 289 290 290 289 290 292 291 291 292 292 292 292 293 293
319 318 318 317 317 316 317 317 317 315 317 318 318 318 315 319 320 318 311 312 310 306 307 305 300 294 295 300 296 298 301 303 305 303 302 302 300 300 300 298 297 295 294 298 297 296 295 295 290 289 288 285 289 285 283 281 284 278 284 284 285 283 283 286 285 289 289 289 288 288 287 289 292 293 289 289 290 290 291 293 293 292 291 291 292 292 293 293
319 319 318 318 318 317 318 317 318 316 318 319 319 319 319 318 309 307 304 300 298 295 293 295 292 287 285 292 299 303 304 306 304 305 305 304 301 299 299 298 297 299 293 293 295 296 291 291 291 287 288 286 288 289 288 288 283 282 284 283 281 285 283 283 287 287 289 287 286 285 288 290 292 292 293 289 289 290 291 291 291 291 290 291 291 292 293 293
319 319 318 318 318 318 318 318 318 318 318 312 309 305 302 299 295 297 301 303 297 293 294 294 297 295 298 296 301 304 306 304 304 301 304 303 303 300 298 296 296 293 292 292 291 293 292 288 287 286 289 291 289 290 291 287 286 285 283 282 283 283 284 285 285 287 286 288 286 289 288 288 290 292 292 290 288 289 290 290 291 292 292 291 292 292 293 293
318 319 319 318 318 318 318 318 318 318 318 309 308 298 292 294 288 287 292 300 300 300 298 298 297 295 297 300 299 302 302 301 301 302 304 306 302 302 297 296 291 292 288 288 292 293 291 287 287 290 292 291 291 289 286 286 286 288 285 284 285 283 285 288 290 288 288 288 283 284 285 287 289 291 292 290 287 289 290 291 291 292 292 292 292 292 293 293
318 319 319 318 318 318 318 318 318 319 316 309 307 302 304 299 298 302 298 295 297 302 301 299 298 301 301 301 302 302 300 298 301 303 305 304 301 300 295 293 288 293 289 290 291 290 288 288 291 293 289 289 288 288 287 288 288 284 286 284 284 285 284 288 287 286 287 288 287 287 287 289 290 291 292 291 291 293 293 293 295 294 293 293 293 293 292 291
318 319 319 318 318 319 318 318 317 319 311 306 302 305 304 307 305 303 302 294 294 297 300 298 297 298 299 299 301 301 300 295 297 299 302 302 298 297 293 292 290 289 289 291 291 286 286 286 292 290 288 290 287 286 286 287 285 286 283 285 285 283 285 284 285 287 289 288 285 283 286 290 290 290 292 293 293 292 292 293 293 294 294 294 294 293 293 292
318 318 319 318 319 319 319 318 319 315 311 307 302 303 306 304 305 303 300 292 290 295 298 299 300 297 298 299 301 302 297 296 296 298 303 301 298 295 295 291 288 289 290 290 291 290 289 290 290 290 290 290 288 285 286 285 286 283 286 284 284 285 285 287 286 286 286 287 284 286 288 290 291 291 290 292 290 291 293 293 292 292 292 293 292 291 293 293
318 318 318 318 318 319 318 319 312 311 311 308 304 304 307 306 305 305 298 291 287 290 297 297 299 297 300 302 303 303 297 296 295 299 303 302 294 294 293 291 289 289 289 290 289 288 288 289 288 289 288 289 287 285 286 288 286 283 284 288 288 287 287 285 284 287 285 282 284 284 283 280 280 287 290 291 286 288 291 292 293 294 294 290 291 292 292 293
318 318 318 318 319 319 319 309 308 312 310 306 305 304 309 307 307 306 290 284 282 285 292 291 302 297 305 298 302 298 298 295 296 299 304 302 303 297 294 292 291 290 288 289 289 287 288 290 290 289 288 287 287 286 285 289 287 285 285 287 290 288 286 286 285 287 280 281 285 284 283 283 284 287 288 287 286 290 293 292 293 293 293 291 292 292 291 292
318 318 318 318 319 319 309 302 310 311 305 307 309 305 305 307 305 305 289 280 278 289 289 293 295 293 304 298 301 294 286 286 299 299 302 302 302 301 293 290 290 290 290 289 287 287 289 289 287 288 287 286 285 285 288 289 288 283 285 284 286 286 286 286 285 286 283 281 284 283 280 282 286 286 290 291 290 290 292 295 295 294 293 292 292 291 291 291
319 318 318 318 319 317 308 311 310 307 307 308 308 309 307 307 306 297 285 273 274 293 289 290 295 300 301 300 300 295 288 295 293 297 298 299 300 298 294 289 293 291 290 289 285 287 290 287 287 287 286 284 287 288 287 291 288 284 286 284 285 287 285 285 285 282 282 282 282 283 285 284 283 284 285 287 288 289 292 295 296 295 294 292 292 291 291 291
319 318 318 318 319 318 315 311 310 307 310 306 306 309 309 307 299 289 280 273 285 288 303 294 305 300 295 298 294 289 293 291 290 293 297 300 300 296 292 289 290 290 291 291 290 287 288 289 291 292 290 287 287 285 289 292 289 287 285 285 284 283 282 281 281 284 281 279 281 283 285 280 286 283 286 284 287 288 291 295 295 295 293 291 291 290 290 289
319 318 318 318 317 314 312 313 310 309 307 308 309 310 310 305 292 283 277 271 293 285 293 295 296 292 294 294 291 292 292 290 290 296 296 296 297 297 296 293 291 289 290 291 288 286 289 291 291 291 290 290 287 286 286 290 289 287 286 288 285 282 280 279 280 280 281 277 284 284 285 285 284 284 287 287 288 290 293 291 291 290 290 289 289 289 289 289
319 319 318 318 312 312 312 306 310 308 310 310 311 310 305 295 284 279 272 281 288 291 292 291 289 294 292 291 289 289 290 289 294 295 293 296 295 293 294 293 293 288 285 285 287 284 289 289 290 289 290 288 290 288 286 286 287 289 287 283 287 286 279 278 275 276 276 279 283 281 285 286 281 281 283 288 287 287 290 291 291 291 291 290 288 288 288 288
318 319 319 316 315 315 307 305 311 311 311 312 310 305 298 285 289 278 278 289 283 286 291 287 288 290 292 292 290 291 291 290 292 294 293 291 291 293 293 290 290 282 281 286 284 284 287 287 286 290 290 292 287 289 288 287 289 288 287 289 283 275 274 274 270 276 275 279 280 279 283 282 284 289 284 287 291 292 290 291 293 292 292 291 288 287 287 287
317 317 318 317 315 312 312 313 313 312 312 312 307 301 290 284 277 285 284 286 282 289 289 289 288 290 291 289 288 289 290 290 291 292 291 290 291 292 292 292 292 287 281 282 286 283 285 285 287 289 290 290 293 289 285 285 288 287 288 285 281 274 274 273 269 267 271 277 279 281 283 283 282 287 292 295 297 296 293 292 292 292 293 294 290 287 286 287
318 317 315 316 315 314 313 313 314 313 311 309 303 295 289 281 280 293 287 287 288 287 288 286 289 288 291 289 288 292 287 288 291 291 292 289 290 288 291 292 290 289 285 283 285 285 278 280 285 289 288 291 294 295 293 288 288 290 287 290 285 280 275 272 273 276 278 275 276 278 278 277 278 284 287 291 291 288 287 287 287 287 289 287 285 284 285 286
317 317 316 316 315 315 313 314 314 314 311 305 298 291 282 281 287 286 286 288 287 288 288 291 290 288 287 284 284 291 290 287 290 290 288 289 287 286 287 291 292 291 285 286 284 281 284 284 283 291 288 293 293 291 290 288 288 285 285 285 280 285 282 281 274 272 270 271 272 273 280 280 284 285 287 287 287 289 287 285 285 287 286 284 284 286 287 287
315 314 316 312 312 314 314 314 314 314 308 301 293 286 284 287 284 290 289 292 290 290 288 289 285 284 285 285 285 290 292 288 289 289 287 287 286 288 290 289 293 293 290 287 285 282 282 281 285 287 288 290 292 289 291 290 286 285 286 284 285 284 287 276 274 275 273 272 280 275 280 283 284 289 292 294 292 292 289 289 288 289 288 284 286 286 286 287
310 313 308 311 312 315 314 314 314 311 306 299 291 285 290 290 294 292 296 292 292 293 289 287 286 286 284 285 285 287 289 289 288 288 286 288 288 288 286 289 291 294 295 292 286 287 284 282 286 286 288 288 287 287 287 287 288 286 282 285 286 285 286 283 278 272 270 274 278 277 280 282 279 284 282 286 286 290 290 292 291 288 286 285 288 287 287 287
309 309 310 310 313 315 314 314 313 309 303 296 287 290 293 290 296 294 293 292 292 293 289 288 285 290 284 286 284 285 287 288 287 287 285 289 286 293 291 288 291 295 296 291 290 288 290 284 284 284 285 287 286 290 289 288 288 287 284 287 289 282 280 280 276 277 271 274 276 275 276 280 284 286 285 286 285 288 290 287 285 288 285 286 287 286 285 285
309 307 302 310 315 315 313 314 311 305 298 290 287 287 292 293 297 295 293 294 294 293 290 290 287 288 289 286 285 287 289 286 287 286 285 285 286 291 293 295 290 294 296 295 291 287 290 285 283 285 285 287 287 289 285 285 289 287 288 288 285 284 276 278 283 275 277 272 268 278 273 283 285 285 287 291 290 290 290 289 289 289 287 286 286 286 286 285
304 301 299 312 314 315 314 312 305 301 295 286 288 288 295 292 295 297 295 296 292 293 290 290 290 287 289 289 289 287 288 288 288 288 288 287 289 290 292 296 292 290 294 297 294 293 288 287 281 283 285 286 285 286 287 288 286 285 285 284 286 283 283 281 279 278 278 268 268 271 279 285 283 287 288 292 292 292 291 292 292 291 287 285 286 287 286 286
307 300 300 312 313 314 312 306 298 294 292 292 292 290 293 291 294 295 297 298 296 297 293 291 290 289 290 288 286 288 287 288 286 286 287 287 289 286 292 294 293 290 292 293 293 290 286 285 284 282 282 284 284 283 287 290 293 290 290 287 289 284 281 278 279 280 272 276 279 269 280 287 285 284 291 290 292 291 290 292 291 289 287 285 286 286 286 286
300 291 297 311 313 312 305 295 295 298 293 288 287 291 290 298 293 293 295 296 296 294 295 293 291 291 289 290 291 288 287 286 286 286 286 288 292 291 288 297 296 295 294 289 292 296 293 285 284 281 283 286 285 287 284 285 286 286 286 285 288 288 285 280 277 279 275 280 276 275 271 285 288 286 288 289 288 288 287 286 289 289 285 284 285 286 285 286
298 295 304 311 313 310 301 294 296 294 291 292 296 295 297 295 294 295 292 295 293 295 293 293 294 292 289 290 289 289 291 287 289 287 288 289 291 294 289 295 295 295 297 291 290 289 294 287 285 284 283 282 285 285 284 283 287 287 285 282 286 288 288 288 286 283 284 277 277 275 273 286 286 283 282 283 282 281 282 283 287 287 286 286 285 285 285 285
298 298 299 308 313 309 297 288 289 291 291 293 294 293 297 295 294 293 293 294 293 292 292 291 291 293 291 288 289 289 292 288 290 290 289 290 287 289 292 294 296 294 295 292 292 295 289 288 289 284 279 282 283 286 285 286 285 282 282 286 290 291 289 283 283 281 280 282 284 281 279 286 287 282 281 283 283 284 285 285 284 286 287 285 285 285 285 285
296 297 296 300 308 305 293 295 294 291 291 291 292 291 292 294 296 297 295 293 295 293 291 291 294 290 291 288 291 290 293 293 289 292 292 288 290 287 288 294 296 295 297 295 297 299 292 289 289 284 282 280 279 280 282 282 285 285 282 288 287 289 288 286 285 284 283 287 284 283 284 290 286 285 288 285 284 285 285 285 284 285 286 285 284 285 285 285
292 286 294 295 300 300 300 301 299 295 291 291 290 292 293 291 294 297 298 296 297 296 295 294 293 294 292 289 288 289 290 294 292 285 289 287 287 287 287 291 294 296 296 297 295 297 288 291 291 290 288 286 288 288 286 288 284 283 286 287 287 289 290 290 289 286 284 286 283 287 289 290 288 287 287 287 285 287 289 287 288 288 286 285 284 284 285 285
296 289 290 286 294 297 295 297 296 296 291 293 288 292 290 292 293 294 299 293 297 296 296 295 292 291 291 293 291 290 291 290 293 289 287 289 287 285 285 287 292 293 295 295 296 291 285 288 291 291 291 292 292 292 287 291 287 288 288 287 289 288 288 288 287 286 289 284 283 289 290 288 291 291 287 288 287 286 287 287 288 285 286 286 285 283 286 283
287 291 296 294 289 286 290 291 294 293 294 294 289 294 291 291 292 289 295 297 297 298 293 294 295 295 294 293 293 289 289 288 289 289 291 288 289 287 288 288 289 292 293 293 293 293 288 289 290 290 290 293 293 292 288 289 290 290 289 289 287 288 287 286 288 291 290 286 285 291 290 288 291 294 293 290 291 291 291 292 290 287 285 283 282 283 283 283
294 292 291 295 288 289 291 292 294 292 291 293 289 291 289 291 290 293 293 292 295 294 296 289 292 294 295 295 293 289 291 287 287 290 290 289 288 287 286 288 288 289 292 290 292 289 290 289 290 291 289 291 291 292 289 289 289 288 288 289 289 288 288 289 289 291 290 289 291 292 289 289 294 295 295 293 292 292 292 288 285 286 285 284 283 283 284 284
289 290 287 293 291 290 289 289 289 289 287 290 286 287 289 290 289 293 294 293 288 292 297 293 293 295 295 295 294 291 292 293 292 289 291 291 286 287 287 289 285 286 289 290 291 289 291 289 294 289 288 288 290 291 288 287 288 287 287 288 289 289 289 289 290 290 290 290 292 291 290 289 295 291 291 294 295 294 292 290 293 292 289 286 286 285 286 285
295 294 295 289 286 289 291 290 287 288 287 288 287 288 289 289 289 293 293 297 294 291 294 293 295 295 295 295 295 294 297 296 295 295 294 293 290 292 291 288 291 287 288 289 289 288 290 286 286 288 287 287 289 289 288 286 284 285 286 286 287 287 286 288 287 290 289 288 289 289 288 289 293 294 292 292 291 293 294 295 293 290 289 288 287 288 287 286
295 295 295 292 285 291 289 289 288 287 285 289 288 288 289 289 291 292 288 294 296 297 296 296 296 295 293 293 293 296 299 299 298 299 297 297 299 296 297 293 294 291 288 289 291 289 289 289 288 288 285 286 289 289 287 283 283 283 285 288 289 289 290 290 291 291 291 292 288 287 288 294 294 287 290 288 291 293 294 293 291 290 288 287 288 288 288 288
Wind_Speed
4 3 1 0 1 1 2 3 3 4 5 5 6 6 7 7 8 8 9 9 9 10 10 11 11 12 12 12 13 13 10 3 4 2 1 2 1 1 2 3 5 6 5 3 7 3 1 5 5 10 3 4 3 1 1 3 1 2 2 6 1 2 3 5 7 9 2 2 4 3 3 3 2 0 1 0 5 2 1 0 3 1 1 2 2 1 2 1
3 3 3 2 1 0 1 1 3 3 4 4 5 6 6 7 8 8 9 9 9 10 11 11 12 12 12 12 13 12 5 3 2 1 3 1 1 1 2 2 4 7 2 5 5 2 2 3 3 6 4 1 2 1 1 0 2 4 2 2 6 5 4 7 4 6 2 1 2 3 0 2 3 5 1 1 1 1 0 1 2 3 3 0 0 2 3 4
3 4 3 2 1 1 0 1 1 3 3 4 4 5 6 6 7 8 8 9 10 10 11 11 11 12 12 12 13 8 3 2 1 1 1 1 3 2 2 3 5 7 4 1 1 3 1 1 0 1 4 2 7 1 4 1 1 1 3 1 2 8 2 5 5 5 3 3 3 4 0 1 0 2 1 2 1 1 4 4 2 3 5 5 1 0 2 4
5 5 3 2 2 2 1 2 2 2 3 4 4 6 6 7 7 8 9 9 10 11 11 11 12 12 12 13 11 3 1 2 0 1 1 4 3 2 3 5 5 4 4 6 3 3 4 6 5 4 1 5 3 1 2 3 1 1 2 3 2 4 1 2 6 5 4 1 2 2 1 0 1 3 1 2 1 4 6 7 8 11 9 8 5 3 2 5
5 4 3 2 2 2 2 2 2 3 4 4 5 5 6 6 7 8 9 10 10 11 11 12 12 12 12 12 9 1 3 3 1 1 2 4 3 2 3 5 5 4 4 5 4 5 7 4 1 4 3 0 4 2 1 2 2 3 0 1 1 2 0 1 5 3 3 2 4 2 5 4 1 0 1 6 6 8 7 6 9 6 5 9 10 6 3 5
4 3 3 2 2 2 2 3 3 4 4 5 5 6 6 7 7 8 9 10 10 11 11 12 12 13 13 9 2 1 3 1 1 1 4 5 3 3 5 4 6 3 3 5 2 3 1 5 3 2 2 2 2 2 2 0 1 0 1 0 3 1 0 1 1 3 5 3 4 4 3 3 2 1 1 5 9 4 2 3 4 4 5 6 4 6 6 6
3 2 3 2 2 2 2 2 3 4 5 5 5 6 6 7 7 8 9 10 10 11 11 12 12 13 13 3 1 5 2 3 2 3 7 6 4 4 6 6 6 4 3 2 4 1 3 3 3 0 2 2 1 1 0 3 3 4 1 0 1 2 1 1 0 4 1 8 4 3 1 1 2 5 1 3 8 3 3 2 4 3 3 7 9 7 8 8
5 4 2 3 2 1 2 2 3 4 4 4 4 5 6 7 7 8 9 9 10 10 11 12 12 13 9 1 1 2 2 2 2 2 7 4 5 4 4 4 4 3 9 5 0 2 1 4 2 3 5 2 1 1 3 0 5 1 1 1 0 1 3 3 0 2 0 1 1 2 1 2 4 2 1 7 9 2 2 2 4 5 6 5 6 7 6 5
6 5 4 3 2 1 1 2 3 3 3 3 5 5 6 7 7 8 8 9 10 10 11 12 13 13 3 2 3 1 3 1 3 6 5 5 5 8 4 2 6 6 4 3 4 3 2 1 1 4 2 1 1 1 4 1 2 0 0 1 0 0 4 1 0 0 0 0 1 1 4 3 2 2 5 13 5 1 2 4 4 5 6 6 6 6 6 6
6 6 5 4 3 2 2 2 1 2 3 5 6 6 6 8 8 8 8 9 10 10 10 12 13 11 2 2 3 1 2 1 4 4 4 3 5 7 10 3 2 4 2 3 3 4 2 3 2 4 7 3 1 1 1 2 0 1 1 1 1 1 3 2 1 1 0 1 0 3 3 1 3 2 9 1 2 4 4 4 1 5 7 6 5 5 5 7
7 7 6 5 4 4 3 3 1 2 2 4 5 6 7 7 8 8 8 9 9 8 10 11 11 7 1 2 3 4 2 2 1 3 4 4 8 8 3 5 1 3 6 3 4 0 2 5 3 3 1 1 2 1 1 0 2 3 1 1 1 7 2 2 2 3 0 2 4 4 3 0 1 2 12 3 3 4 6 4 4 4 5 5 4 5 4 4
9 8 8 8 7 6 3 2 1 1 3 3 6 7 7 8 8 8 8 9 8 8 8 8 9 2 2 5 3 3 2 3 2 1 5 4 5 2 4 1 3 3 1 2 1 0 1 3 4 1 1 0 1 0 1 0 2 0 0 1 3 6 3 0 3 2 2 3 4 4 1 4 2 8 6 0 2 1 4 5 4 5 5 4 4 4 4 5
9 8 8 7 8 7 5 3 2 2 3 4 5 7 8 9 9 8 8 8 8 8 8 8 4 2 1 1 5 6 2 1 1 4 5 6 5 3 4 4 6 4 2 4 1 0 2 4 3 6 0 3 2 0 1 3 2 0 5 1 4 6 5 3 0 1 4 1 4 2 5 8 8 15 1 0 5 3 2 5 5 5 4 4 4 5 4 4
10 10 8 8 7 6 5 5 4 2 2 4 6 6 8 10 10 8 7 7 8 8 8 6 3 2 2 3 4 2 2 1 1 5 2 0 3 2 4 4 5 5 3 7 2 2 1 0 5 5 2 3 1 0 2 3 4 1 1 4 0 2 4 2 0 0 4 0 2 1 4 9 7 8 5 2 5 8 7 8 6 6 5 5 5 5 6 6
12 10 9 9 7 5 4 4 3 3 2 4 6 6 8 11 8 6 6 7 8 8 7 4 2 1 2 4 3 7 3 1 2 0 1 1 3 2 2 4 6 5 3 4 2 1 2 2 3 3 1 1 0 1 2 3 4 2 1 3 3 3 5 8 3 5 4 1 0 2 3 11 12 7 4 1 4 5 8 7 7 7 6 6 5 6 6 7
12 11 11 9 9 7 6 5 3 3 3 5 4 5 7 8 6 6 7 8 9 6 2 0 4 5 3 2 1 1 2 0 1 1 1 2 2 1 1 4 1 6 3 2 3 1 5 8 8 1 0 1 7 6 3 2 2 5 2 4 1 1 5 8 0 2 3 2 1 6 7 5 6 3 3 1 4 4 6 7 6 8 8 7 7 6 5 5
12 12 11 10 9 9 7 6 4 3 4 4 5 5 6 5 6 8 8 6 3 1 1 1 0 0 0 2 1 1 3 1 1 1 2 3 2 5 4 4 3 2 4 2 8 3 6 5 3 1 5 4 2 5 1 3 5 3 2 3 3 2 2 2 5 0 1 1 4 2 3 9 6 2 1 1 4 5 7 11 9 9 8 8 5 6 8 8
12 11 10 9 9 8 6 5 5 4 4 5 5 5 4 6 6 7 5 4 1 1 1 1 1 2 6 1 2 2 0 1 2 2 4 2 4 5 4 2 0 5 4 2 4 2 3 1 4 2 2 2 1 3 4 6 7 3 2 0 5 1 3 5 1 1 2 1 2 1 5 13 14 10 5 4 5 6 11 12 10 8 7 6 8 8 11 10
11 11 10 10 9 7 6 5 4 5 4 4 5 6 5 2 2 2 5 3 1 2 1 3 4 5 2 3 2 3 1 1 1 2 1 2 3 4 5 4 4 3 0 2 2 1 3 4 4 4 3 2 6 8 9 9 5 2 7 5 3 3 3 3 7 3 4 2 4 5 9 12 13 13 11 4 5 8 12 7 8 8 7 7 10 11 11 11
11 11 11 10 9 8 7 6 6 3 2 3 4 3 2 2 3 1 3 2 3 4 1 3 1 1 0 2 1 1 2 3 4 3 0 2 3 4 5 2 3 6 4 4 1 1 1 4 5 7 9 11 6 10 8 2 4 4 3 2 4 3 5 5 4 5 1 0 8 10 10 8 11 12 11 5 3 6 9 12 12 11 10 10 11 13 13 11
11 11 11 10 9 8 7 7 5 2 5 3 1 2 2 5 4 3 2 6 5 2 0 1 4 2 0 1 1 2 4 1 3 1 1 0 2 7 1 2 2 1 0 1 4 0 3 3 7 11 12 7 8 4 3 4 2 1 1 1 5 2 7 5 1 2 1 3 3 3 4 9 13 13 12 4 3 11 13 14 15 16 13 12 13 14 13 10
12 11 10 10 9 8 8 7 6 3 7 3 2 3 1 1 0 1 2 3 3 9 6 2 2 2 1 3 2 2 4 2 1 0 1 1 2 7 2 3 4 8 0 2 2 2 1 8 11 12 3 3 2 5 3 3 2 2 3 2 2 7 5 9 4 3 1 2 9 6 10 12 11 12 12 11 12 11 11 14 17 15 13 12 12 13 9 5
13 12 11 10 9 9 8 8 4 7 2 2 1 3 2 2 1 1 1 2 4 2 5 5 4 5 4 3 1 2 1 3 7 4 4 1 2 3 5 4 4 2 1 3 8 4 2 6 16 3 6 4 1 3 4 2 1 3 1 1 8 3 2 7 1 3 0 4 3 3 10 13 8 10 15 16 14 9 9 13 15 12 13 14 15 11 9 11
14 13 12 11 10 10 9 8 7 5 3 4 3 4 2 3 3 2 1 2 3 4 4 5 8 4 6 4 5 6 5 3 4 6 3 5 9 3 5 5 4 4 7 8 10 12 10 2 2 6 6 7 4 3 5 4 7 3 5 5 4 3 6 6 5 4 1 1 2 5 9 12 8 11 7 8 4 6 15 14 13 13 12 11 4 5 11 14
15 15 14 12 11 11 9 7 3 2 4 2 2 3 5 3 4 4 1 3 1 4 1 2 4 3 5 3 2 6 2 0 5 2 4 8 6 4 4 1 4 5 6 6 2 4 9 6 3 5 2 3 4 2 6 8 6 3 6 10 9 6 6 4 3 5 8 5 3 3 7 5 3 6 9 7 4 4 7 9 15 17 12 5 9 13 7 8
16 16 15 15 13 12 9 4 2 4 6 4 2 2 5 4 1 1 4 3 5 3 3 6 4 6 6 2 4 4 4 4 3 4 7 5 3 4 2 1 2 8 5 3 6 4 5 0 4 5 5 4 5 5 4 7 8 2 6 9 11 7 3 1 3 2 3 3 2 2 1 12 3 5 6 6 4 11 10 7 13 10 9 6 10 10 8 10
17 18 17 16 16 13 6 4 3 7 5 5 5 2 3 5 3 1 1 3 6 5 7 2 2 2 2 3 8 5 3 7 0 3 5 2 7 0 5 5 2 2 3 3 3 7 2 0 4 4 5 5 5 4 5 12 5 4 2 3 4 3 5 6 3 5 6 1 4 2 2 5 18 4 7 8 7 8 9 15 14 10 9 9 8 7 8 9
19 19 19 19 18 17 3 5 8 8 4 1 3 7 5 6 5 1 4 1 5 3 2 3 2 2 3 3 10 10 2 2 5 4 1 1 2 1 1 8 10 10 4 4 9 2 6 4 4 4 3 4 7 6 4 9 7 3 0 6 5 5 5 2 3 3 1 3 9 1 0 3 9 2 3 2 1 6 12 17 14 9 8 7 8 9 9 10
18 19 20 19 19 18 4 7 7 8 3 3 4 6 6 4 3 5 4 3 1 1 1 5 4 2 2 3 3 3 2 4 1 0 1 2 3 2 3 5 4 4 2 8 10 1 1 4 9 8 7 7 5 1 7 12 6 2 5 7 6 7 6 3 3 3 1 2 9 6 5 3 19 3 3 4 1 6 12 14 11 9 8 6 7 7 7 5
20 18 19 20 15 11 1 2 6 1 6 4 7 7 7 5 3 3 3 7 1 2 0 0 1 5 4 13 5 2 2 1 1 1 2 4 1 3 1 3 4 3 4 2 2 5 0 4 3 4 7 4 5 2 2 3 2 7 4 7 5 7 3 3 6 2 2 5 9 11 10 6 13 1 8 8 8 9 9 6 6 6 6 6 6 5 4 5
20 22 22 21 12 9 7 7 6 4 6 7 8 9 6 3 4 4 6 6 2 1 2 1 2 4 11 13 7 2 3 1 0 5 3 0 1 3 1 4 3 4 1 3 6 2 1 1 1 2 3 4 4 4 4 2 4 5 2 3 3 2 6 3 4 4 1 9 1 3 9 8 12 4 5 6 4 5 7 7 7 7 7 6 5 4 4 5
19 22 22 17 8 10 14 10 9 7 7 9 8 8 5 6 3 8 6 3 2 4 8 4 1 5 9 1 3 10 9 2 2 4 9 7 8 10 10 11 7 3 5 9 8 2 6 7 2 2 3 9 3 7 3 3 0 3 5 6 6 4 5 3 3 2 5 9 0 2 3 4 18 11 3 8 11 9 8 10 10 9 9 7 4 5 4 4
17 20 24 17 11 9 7 6 12 8 10 8 5 3 6 6 10 10 8 5 4 3 3 3 5 7 9 5 6 4 3 8 1 3 4 0 8 10 4 6 6 6 7 2 7 1 8 1 1 3 2 4 9 8 3 1 5 5 8 7 6 0 2 5 4 2 7 7 3 1 1 9 3 8 12 19 22 11 8 11 10 9 11 10 5 4 4 5
14 18 14 14 13 12 8 12 11 13 11 6 5 5 5 6 8 11 16 10 3 2 4 2 4 2 11 9 5 9 4 3 9 5 5 6 7 8 8 8 4 3 5 2 9 9 5 6 6 8 5 5 10 11 12 6 10 10 3 10 9 9 7 3 5 6 8 5 2 5 2 8 3 5 2 10 8 5 6 6 5 7 9 6 4 3 4 5
8 13 11 10 10 7 10 12 13 13 11 10 7 9 14 12 7 12 12 10 1 1 3 1 6 5 5 4 2 5 3 3 5 6 5 9 9 7 8 12 10 4 2 4 4 3 9 6 4 6 2 9 13 2 6 6 3 2 2 5 3 8 6 6 4 3 2 3 4 2 7 4 6 3 5 5 7 11 6 5 5 10 7 4 4 5 6 6
1 3 8 5 10 8 9 10 13 13 12 12 10 12 15 11 12 8 6 5 1 5 4 5 3 4 4 3 3 9 3 2 3 4 2 5 2 8 8 5 14 18 11 12 4 4 2 5 1 4 4 5 5 2 2 4 8 4 6 7 5 2 4 2 2 1 1 2 12 4 9 7 8 11 13 16 10 14 5 7 7 11 8 4 7 5 6 7
1 2 5 5 9 10 11 11 13 11 10 14 13 12 12 8 8 4 3 8 7 13 6 8 6 8 6 7 4 5 5 4 3 6 6 2 6 7 4 7 4 11 15 8 2 3 8 5 1 2 5 1 0 0 3 4 4 9 4 7 2 2 3 3 6 2 2 4 8 4 9 8 3 15 3 1 5 13 9 13 9 8 4 6 10 8 8 8
2 2 2 8 9 11 11 13 16 11 10 11 13 13 8 13 7 8 1 5 5 6 6 10 2 10 5 9 7 6 3 7 6 5 5 7 7 7 9 2 7 14 18 3 5 2 3 5 1 2 0 3 2 1 2 2 2 6 4 5 7 4 3 2 4 5 1 5 7 4 2 9 10 12 1 1 4 8 11 7 3 8 4 8 7 8 6 5
1 1 6 10 10 14 12 13 13 13 11 10 9 10 7 13 13 8 2 4 1 7 12 9 7 5 6 9 4 4 10 10 9 8 6 3 6 7 16 11 6 12 14 8 5 1 1 5 3 1 2 1 1 4 9 4 1 1 3 4 1 2 1 5 8 3 5 5 1 9 4 15 8 8 9 11 12 11 7 3 6 8 5 5 6 6 6 7
4 3 8 6 16 16 14 14 10 11 11 16 12 11 2 11 9 8 3 4 3 8 7 8 7 4 6 8 11 9 8 8 12 11 8 4 11 2 8 11 5 4 11 14 7 2 3 2 8 1 3 2 4 7 11 13 11 1 2 4 1 0 2 4 1 4 3 4 3 3 11 14 5 8 10 12 11 10 8 8 8 7 3 5 6 6 5 6
2 4 2 8 16 16 15 9 9 12 12 5 8 10 7 7 4 6 11 10 4 2 3 3 5 11 7 6 5 2 5 9 6 7 7 5 9 6 8 9 8 6 5 5 8 3 2 2 8 2 1 7 6 2 4 9 14 15 17 16 17 12 6 4 8 2 3 2 6 4 14 18 4 3 10 10 11 8 6 9 9 6 4 5 6 6 5 5
6 7 6 10 15 19 12 13 8 9 7 11 14 11 8 12 1 4 8 9 11 7 2 0 2 5 5 7 8 7 5 5 7 6 5 11 10 11 2 14 13 17 15 11 17 14 7 3 5 6 8 9 3 0 0 1 1 0 1 3 4 2 2 4 5 6 0 4 3 3 4 25 3 6 6 6 3 5 6 4 8 7 4 4 6 6 4 5
8 10 3 11 17 20 14 13 9 9 10 10 7 11 2 1 7 7 9 10 9 8 5 7 11 8 5 5 5 6 11 5 11 11 7 11 12 14 3 13 10 16 12 1 2 3 5 3 2 5 0 2 3 1 1 1 2 2 1 0 6 9 12 12 6 5 8 2 2 2 0 20 2 2 3 1 1 3 3 3 8 7 5 6 5 6 6 5
4 6 1 1 14 17 16 14 11 12 7 6 12 11 14 5 6 7 8 12 10 8 12 6 1 6 6 3 3 8 10 6 6 13 10 6 7 2 11 11 17 10 13 10 12 10 5 5 8 2 2 1 2 2 2 2 2 3 3 7 12 11 8 2 5 1 3 10 13 10 12 21 1 2 1 1 1 5 4 7 7 8 7 4 5 6 5 4
4 1 1 2 5 9 13 9 12 11 11 14 13 16 12 10 4 11 14 13 10 6 5 10 11 3 5 2 5 4 10 17 5 13 13 5 7 1 3 13 14 10 10 5 10 15 8 7 10 9 13 12 11 12 14 9 10 4 3 8 5 9 13 6 8 6 9 10 11 6 14 19 2 3 3 3 2 6 6 5 6 7 7 4 4 4 4 5
3 4 2 3 6 10 9 10 13 12 12 13 13 13 15 14 5 7 8 9 12 10 11 2 5 4 5 4 5 7 10 13 16 2 10 5 4 1 3 9 14 11 6 6 4 10 4 6 14 14 15 17 16 9 3 11 5 7 12 15 14 13 12 12 6 5 15 8 9 18 24 22 7 5 6 6 4 7 7 4 8 8 7 7 4 4 6 6
3 5 3 4 2 11 9 4 8 11 12 11 11 6 16 17 11 4 10 3 5 10 8 13 3 9 8 6 10 11 10 8 12 4 5 8 1 1 2 6 8 9 3 2 2 4 3 5 12 17 20 21 17 16 7 17 15 19 19 16 19 17 18 18 16 20 14 6 15 20 20 16 26 14 7 8 8 6 7 8 9 5 6 6 6 4 5 4
6 4 3 2 3 6 11 14 10 8 8 12 10 7 16 15 13 10 4 9 3 7 8 3 10 10 13 20 13 12 7 8 7 13 9 5 3 0 1 0 4 4 4 0 1 5 5 8 10 12 18 19 19 17 10 12 15 17 21 20 20 21 16 19 23 27 15 15 23 27 13 17 25 21 13 12 10 10 12 15 9 5 1 2 4 5 4 5
4 3 3 2 1 2 8 8 14 16 12 11 4 9 10 16 18 15 8 5 9 5 11 8 14 20 19 16 16 13 13 8 10 9 12 8 9 5 3 1 4 3 5 3 3 3 2 8 7 14 17 17 19 20 11 16 11 10 15 19 20 22 24 28 29 30 26 20 22 24 12 19 23 22 12 11 9 12 9 1 2 4 7 8 4 4 5 7
5 5 4 2 4 5 4 3 2 8 14 8 6 6 8 10 15 11 9 10 7 13 13 18 17 17 21 18 17 17 17 18 16 15 9 11 5 6 6 7 4 0 4 8 5 2 8 10 14 7 8 15 20 19 10 14 14 15 10 11 17 21 26 31 30 25 21 22 23 23 19 19 21 4 5 8 12 8 1 5 10 10 6 5 6 6 8 9
2 0 1 4 4 4 5 7 3 9 8 9 10 6 6 9 12 10 10 9 15 9 11 20 19 19 13 16 17 19 18 20 19 21 12 14 15 10 11 5 10 7 9 7 3 1 8 4 2 2 11 13 16 18 17 8 6 8 9 11 16 22 24 23 19 21 19 23 23 15 15 22 13 11 6 9 7 11 15 16 11 8 9 7 8 9 8 9
3 1 1 2 6 3 5 2 5 3 12 8 9 10 9 15 12 9 8 5 8 10 9 15 19 15 15 16 19 20 22 19 15 10 7 5 11 5 11 4 13 13 9 12 8 8 7 7 9 7 13 15 18 15 10 4 1 9 15 21 28 29 22 13 17 17 19 20 16 17 24 26 13 5 6 6 9 13 14 10 10 10 7 8 10 10 10 10
Wind_Direction
181 189 183 250 95 53 17 8 360 8 7 9 8 9 13 11 8 10 6 6 1 360 356 351 352 346 340 342 346 347 352 81 32 37 54 231 292 260 327 325 333 331 14 52 20 52 344 12 5 340 30 54 318 44 296 50 43 54 67 113 95 198 149 204 176 186 200 127 228 221 213 121 177 136 183 143 32 59 346 82 309 317 284 220 259 293 257 256
186 203 194 224 135 149 72 359 0 4 13 4 8 359 4 4 6 3 1 359 358 356 354 350 345 345 338 338 344 347 16 57 49 67 239 58 291 354 41 9 350 352 4 42 58 66 80 340 335 30 47 47 324 337 8 346 79 88 123 86 199 176 233 158 198 196 121 279 196 204 62 154 207 141 221 98 279 15 112 285 15 320 304 345 346 346 89 140
203 210 202 225 302 295 11 32 9 9 5 7 1 4 5 1 356 0 358 357 357 355 353 346 344 340 337 337 337 350 351 15 56 350 310 348 334 354 53 49 42 33 55 126 178 113 97 195 286 67 6 97 6 281 34 338 45 190 113 167 253 204 229 208 171 196 192 136 135 177 210 153 254 154 107 217 161 50 209 218 301 260 243 226 244 23 114 138
209 210 216 220 251 284 291 325 5 6 19 8 356 2 2 356 355 358 356 356 354 353 348 344 338 337 334 335 343 327 62 63 38 261 293 320 315 352 47 57 63 52 77 62 138 114 125 80 56 75 37 64 312 31 52 319 35 198 69 158 216 186 118 220 184 225 198 158 148 146 112 167 274 212 157 168 116 256 257 229 190 210 215 203 207 203 180 152
207 211 227 263 273 296 318 329 345 353 4 7 8 354 355 353 356 353 355 353 354 348 346 339 337 334 334 340 340 322 62 52 255 242 289 322 340 33 55 69 74 57 94 150 82 52 71 77 78 38 74 262 6 11 56 335 93 91 47 190 169 144 18 222 195 168 144 161 111 121 137 222 79 52 147 148 188 235 211 240 218 226 196 173 185 196 171 168
206 204 224 245 267 292 313 334 346 351 357 355 359 354 349 348 351 354 353 353 349 348 340 339 334 333 335 344 39 61 79 46 245 352 336 332 347 51 59 66 95 99 90 53 98 32 64 356 62 24 7 58 330 85 308 122 326 36 330 325 202 220 153 322 163 192 126 132 145 142 221 81 151 245 199 179 212 230 219 265 252 228 205 180 128 144 167 175
177 196 213 224 240 258 290 339 344 349 350 355 348 350 344 348 344 351 351 349 347 345 341 336 334 334 333 33 46 82 93 272 27 297 355 350 352 61 71 58 77 62 75 61 22 68 27 68 75 165 94 68 299 85 67 308 19 108 169 332 231 191 264 79 352 116 131 129 198 206 63 179 132 249 98 215 247 251 270 277 250 224 153 138 148 177 176 183
171 206 206 215 222 262 311 338 350 346 346 350 350 344 346 343 345 342 345 345 345 343 342 338 337 338 352 52 61 4 37 251 281 340 338 325 8 10 100 62 54 74 57 66 9 67 100 36 128 162 63 137 208 122 333 50 21 78 55 210 227 114 257 310 90 98 108 203 340 102 147 245 182 199 32 252 245 233 28 85 92 110 120 136 151 172 172 173
191 196 199 212 222 233 303 321 340 346 337 338 4 348 348 341 342 340 333 341 343 341 341 342 340 344 327 80 106 50 282 241 206 306 344 20 349 35 61 357 16 85 126 62 30 132 132 256 107 191 256 123 164 90 340 133 311 124 229 130 330 20 324 315 35 89 52 330 121 109 260 280 269 247 256 245 248 184 128 79 109 122 135 164 175 175 173 180
200 201 194 202 203 217 241 263 288 339 4 7 358 354 345 342 334 334 327 335 341 342 342 345 351 330 33 84 47 77 261 293 306 320 359 20 34 47 43 86 49 85 68 341 33 52 73 205 126 170 124 83 100 88 273 60 247 133 126 96 106 310 355 36 195 356 354 236 163 198 266 280 342 95 275 347 199 139 97 110 119 151 168 181 177 187 197 182
209 203 188 196 198 212 205 185 219 333 9 6 1 350 347 332 329 327 328 328 340 338 345 349 357 2 60 71 110 213 234 45 331 346 11 55 56 54 18 355 42 70 101 34 75 149 103 140 156 118 53 233 121 331 68 212 152 48 135 80 19 338 299 238 340 274 128 274 169 178 256 238 311 79 241 228 176 176 141 163 170 185 188 189 198 198 203 208
201 204 195 185 191 199 185 173 184 257 325 344 353 354 347 341 331 325 323 325 329 337 343 350 26 22 81 67 138 210 323 245 335 32 30 72 73 107 180 17 63 132 130 117 352 275 220 153 120 68 224 166 33 84 64 183 73 284 156 299 300 357 345 357 211 284 160 248 155 171 310 274 166 234 243 342 117 147 148 176 203 210 214 218 219 220 215 213
191 203 204 201 198 210 219 226 219 247 303 318 327 344 343 338 329 326 317 325 326 334 342 356 25 30 92 6 238 236 283 283 152 91 54 57 102 89 92 72 81 80 132 127 142 251 160 127 110 80 193 101 158 104 187 71 338 274 33 91 338 360 328 311 280 26 145 247 142 180 281 257 241 241 249 121 140 101 140 213 220 225 224 231 231 227 237 239
185 191 200 205 206 203 215 230 228 222 273 309 316 326 335 336 329 317 319 313 327 328 343 6 46 54 83 237 267 239 275 192 145 62 17 294 77 1 23 23 62 58 47 92 92 140 96 83 98 118 135 76 123 271 47 341 20 140 268 63 52 14 273 293 79 205 154 199 159 69 218 283 259 269 283 229 160 164 203 222 224 226 232 229 227 227 229 235
187 181 195 202 205 193 210 237 245 253 297 312 322 328 336 333 329 326 318 315 314 328 334 11 18 47 50 270 253 292 246 136 41 343 304 92 104 47 14 11 32 28 78 88 125 88 128 87 68 41 26 270 31 72 4 23 4 20 39 293 326 157 279 297 236 174 165 348 44 116 281 251 280 273 311 249 184 183 221 226 228 228 227 227 227 228 232 238
186 185 191 198 200 201 206 224 256 272 293 308 329 341 332 333 335 321 300 301 305 343 333 63 4 99 103 304 216 33 49 117 197 298 306 108 83 125 171 104 18 27 45 20 75 115 48 81 69 170 230 13 56 92 49 27 336 354 118 268 262 115 265 337 3 254 347 107 348 180 228 326 302 284 316 171 178 207 234 253 240 234 233 229 227 228 237 248
187 193 192 194 201 199 196 204 183 225 281 295 325 322 314 317 324 318 304 318 341 330 75 150 101 94 213 247 48 268 235 249 309 38 19 18 102 146 85 37 15 8 10 47 21 55 356 62 292 15 33 103 125 95 68 356 306 291 25 220 204 191 252 263 303 215 266 128 204 264 226 239 245 250 343 191 182 194 233 247 245 235 231 226 227 228 230 228
190 192 193 196 201 197 185 179 195 209 248 291 297 303 306 312 359 3 27 37 313 91 70 125 123 44 285 357 227 237 318 313 53 149 60 311 108 71 87 82 23 66 40 27 355 72 332 67 35 175 4 13 92 77 138 229 201 212 197 308 290 261 208 251 315 251 121 348 208 247 239 262 266 271 243 225 193 197 228 233 240 240 235 231 226 228 229 227
189 188 192 196 198 195 176 190 201 225 268 311 325 312 286 319 75 104 63 359 71 16 23 217 145 160 208 240 338 33 104 242 123 67 158 88 30 94 64 78 73 106 29 76 256 112 348 70 35 43 208 208 217 181 181 218 143 205 170 185 175 210 227 201 238 277 181 202 233 223 227 244 260 268 271 230 200 205 239 258 267 252 236 229 225 230 227 225
189 185 189 195 194 187 188 188 210 228 341 31 2 14 44 34 10 346 343 21 225 182 172 221 216 206 75 356 141 283 274 39 125 330 264 296 110 54 38 60 32 64 108 180 318 76 113 134 172 194 217 213 207 197 203 165 136 98 95 116 209 222 286 278 265 260 267 334 231 229 240 247 264 265 265 255 182 236 255 256 251 244 232 227 230 229 229 225
189 185 186 189 187 183 189 193 198 203 97 88 74 69 154 170 113 271 253 257 257 255 199 310 217 169 187 181 278 166 121 342 61 69 183 136 108 110 223 62 37 169 317 189 141 295 65 147 238 221 219 203 207 184 102 96 66 147 121 191 280 153 255 241 270 17 316 172 294 275 269 257 255 266 268 262 150 246 236 244 249 248 232 230 228 232 226 225
190 187 184 185 182 182 191 196 194 148 111 100 62 90 83 203 214 242 120 290 292 249 231 241 3 275 23 201 245 155 73 75 45 164 292 141 148 147 271 114 156 190 187 106 50 69 154 201 231 227 131 122 101 154 161 174 173 59 195 219 298 267 254 280 279 339 289 118 263 288 279 264 254 254 263 254 234 240 234 226 240 240 241 233 232 233 227 185
187 188 185 179 181 184 190 194 190 132 95 86 102 114 201 214 321 197 106 122 267 285 211 202 251 239 270 298 268 131 179 179 191 214 208 105 101 208 142 121 166 110 96 171 170 164 284 278 246 169 146 118 59 96 129 82 61 162 108 162 237 224 25 297 310 11 100 179 268 315 294 278 263 248 249 249 235 244 254 249 249 241 245 237 231 222 212 215
187 182 181 180 177 183 189 190 139 136 175 165 132 189 207 136 98 69 105 245 285 294 195 219 202 187 203 158 209 141 164 237 109 203 261 136 152 175 123 163 116 121 185 194 190 181 199 207 316 151 158 168 166 109 119 149 243 240 194 210 244 221 230 191 262 309 265 354 54 315 278 274 226 251 263 265 275 249 258 257 257 255 239 248 278 219 208 212
185 182 177 175 177 169 193 130 161 202 122 70 263 215 167 150 98 34 72 332 350 284 287 328 153 231 205 38 105 155 238 355 223 204 170 138 140 114 215 152 105 202 196 207 242 291 278 250 93 84 134 139 117 136 193 156 237 282 227 199 219 219 238 274 343 5 360 335 349 47 324 282 277 236 249 277 339 293 258 254 256 254 253 220 234 235 218 221
185 180 176 174 168 174 147 157 210 141 158 202 216 227 190 165 203 46 90 82 278 260 21 243 142 260 134 203 115 156 76 244 219 198 145 199 112 137 92 158 140 210 194 141 199 215 211 137 159 163 137 166 173 187 230 163 210 221 273 198 213 214 203 259 276 51 299 253 309 39 60 290 194 242 243 263 258 256 274 258 258 262 263 235 233 233 213 210
186 182 176 171 170 154 139 216 152 119 177 239 192 156 153 126 126 95 97 3 303 196 170 263 131 259 79 200 143 108 170 252 56 85 133 266 176 3 133 193 51 8 151 163 24 265 125 20 81 85 112 147 168 212 236 176 154 236 250 149 174 157 198 226 185 186 237 263 297 51 123 271 296 237 221 222 225 258 285 275 262 254 256 246 239 231 217 209
188 183 177 172 168 168 176 128 135 180 194 210 153 140 106 129 101 79 81 43 272 105 144 227 216 357 90 189 163 159 213 157 113 228 23 272 91 357 141 195 178 181 185 111 219 278 156 175 152 154 136 136 192 210 172 156 151 218 231 135 149 174 190 129 149 185 219 27 288 304 174 300 257 276 341 115 178 263 256 256 266 265 255 249 243 231 221 210
187 184 178 175 170 177 137 151 170 197 175 154 116 131 102 112 99 103 129 181 247 84 295 90 279 52 10 105 163 51 139 354 159 285 311 56 33 142 203 217 173 162 221 182 222 277 309 170 206 166 153 203 216 264 163 162 186 246 125 92 84 79 67 110 99 105 316 45 261 192 183 206 278 180 139 353 165 250 244 250 259 265 267 255 246 241 227 212
192 186 181 175 167 170 190 96 191 199 107 116 122 124 117 112 83 98 67 240 86 242 76 218 168 198 147 152 197 18 118 343 55 95 44 154 211 37 36 150 113 113 218 306 268 210 231 290 187 142 196 194 123 39 170 180 125 133 101 75 24 42 35 27 65 87 29 264 253 186 202 158 278 179 182 150 207 203 233 276 278 284 287 272 253 246 220 204
192 188 184 170 179 177 137 194 185 138 121 116 135 128 123 39 131 134 205 224 43 171 45 148 186 78 148 152 178 299 81 46 117 158 121 85 63 51 135 37 48 64 35 328 277 330 339 38 165 254 87 100 99 79 27 85 131 127 103 121 75 340 12 35 337 39 101 266 13 279 193 182 220 289 274 245 284 253 214 236 265 279 272 264 267 255 226 199
198 190 180 178 171 138 177 199 151 138 131 135 142 139 144 146 339 184 224 62 290 208 161 191 212 157 175 185 106 174 165 47 172 172 157 172 161 168 206 180 152 120 282 214 259 30 261 216 232 324 214 133 107 85 13 37 355 89 93 94 122 246 31 285 22 263 194 235 175 347 138 349 240 242 244 278 266 253 212 224 236 247 262 265 259 255 229 201
201 192 182 184 160 186 188 111 136 145 136 147 139 142 133 142 205 203 242 162 246 124 244 91 171 162 164 136 200 166 40 173 188 185 97 136 157 223 233 197 202 141 210 204 200 50 273 306 194 212 69 237 148 154 168 59 220 144 160 149 119 144 213 258 272 269 310 294 264 49 92 253 306 288 220 246 249 239 227 231 236 238 254 261 247 230 217 208
212 193 187 187 185 188 161 148 147 142 139 129 135 106 46 178 215 192 214 208 199 340 62 100 94 46 156 169 209 151 178 243 153 201 163 165 171 204 231 246 194 260 90 112 174 188 243 301 241 138 244 173 186 202 179 156 161 203 93 163 182 151 159 209 203 220 231 229 279 286 93 232 118 245 260 242 270 293 251 254 254 263 261 273 283 258 232 218
229 204 194 192 195 178 163 159 150 145 143 146 155 174 177 201 206 202 217 215 270 60 28 98 118 121 221 336 302 209 113 204 189 129 185 149 203 206 185 208 218 139 159 154 251 82 213 238 265 215 319 161 186 202 108 93 85 216 165 65 90 222 138 235 203 174 268 333 334 207 212 193 195 266 284 255 279 281 248 251 258 267 262 252 268 242 227 220
196 213 197 192 194 178 164 157 152 155 155 157 167 180 199 183 200 193 234 151 97 122 139 52 70 136 201 205 343 196 319 112 197 118 247 224 253 200 212 199 193 191 163 194 158 174 48 272 298 317 49 172 180 119 164 146 200 206 111 207 206 177 125 71 34 67 93 40 257 138 278 280 300 275 240 247 249 257 269 266 245 253 252 232 252 238 228 219
199 144 208 186 206 163 165 160 157 161 175 169 174 203 200 221 220 172 230 186 184 133 137 144 222 161 181 209 195 197 223 78 182 152 223 137 287 210 214 238 177 194 211 157 285 199 151 236 326 87 214 312 136 186 102 28 142 99 195 229 152 115 105 147 227 337 77 210 273 130 245 289 48 282 353 18 247 267 272 255 252 261 264 230 245 236 223 216
178 212 261 215 187 160 162 165 158 171 170 189 207 202 189 219 217 206 132 107 84 150 154 202 253 147 204 171 214 175 219 176 191 182 208 180 241 195 181 202 206 193 205 180 185 258 138 277 310 327 312 307 360 123 34 353 22 146 194 197 126 235 249 286 90 255 228 249 277 284 278 261 193 252 81 261 231 255 249 246 294 274 232 233 250 249 237 228
234 240 252 208 155 155 160 163 169 166 182 190 204 216 207 223 211 204 155 129 134 154 203 210 188 220 157 189 173 169 165 187 174 194 150 220 220 193 189 177 223 203 193 174 202 230 75 184 281 348 130 283 21 131 201 183 356 47 74 124 88 100 170 132 197 181 121 263 34 287 52 274 172 222 177 225 211 220 239 318 272 250 231 226 242 243 223 214
206 212 251 140 150 158 156 164 179 188 189 198 190 228 174 233 235 212 208 204 215 176 216 205 205 165 184 209 165 164 224 202 165 197 195 202 207 281 179 192 166 168 177 187 199 115 214 145 247 333 319 101 188 198 204 163 170 148 137 197 167 175 244 113 28 140 176 181 184 282 304 262 237 199 180 208 217 223 214 233 247 257 217 229 236 230 220 212
164 252 274 145 157 149 146 168 195 201 198 212 223 219 195 212 212 210 212 229 249 353 177 227 166 211 175 177 258 222 178 187 188 192 200 229 189 250 196 171 138 136 123 164 212 186 163 166 208 143 292 223 243 271 220 197 189 179 182 193 185 149 161 143 253 58 114 142 243 156 253 275 242 170 197 195 220 210 249 215 229 252 222 222 238 243 209 207
174 224 223 170 152 145 153 185 196 184 205 188 200 186 214 224 337 175 196 211 219 234 38 109 225 203 176 201 185 185 140 187 196 196 233 212 216 220 248 171 163 148 146 173 199 204 168 157 101 196 213 208 211 193 263 209 35 129 166 262 155 187 128 156 194 230 38 249 88 175 86 272 218 187 197 207 206 244 186 198 250 262 232 231 235 241 232 203
194 221 17 165 157 152 159 209 195 198 200 219 217 219 238 276 210 189 180 206 216 212 234 217 215 208 236 186 179 169 172 208 178 204 206 224 236 214 195 180 146 161 156 101 46 354 108 117 175 268 323 313 310 293 63 86 108 313 328 197 144 185 192 196 200 176 172 150 175 236 200 263 48 150 193 250 267 259 306 225 239 266 262 256 237 249 231 200
214 228 106 256 181 157 172 200 205 210 216 239 218 223 205 209 184 182 198 188 197 185 215 221 7 207 233 152 135 189 177 221 211 210 238 227 254 238 144 178 160 175 165 199 175 177 143 230 195 157 360 335 347 343 298 9 62 200 170 207 201 202 191 82 90 91 187 204 194 163 234 260 259 333 319 63 302 289 249 256 232 252 270 257 238 239 232 192
298 291 157 220 209 170 194 196 214 207 207 208 203 218 214 233 197 205 195 204 196 210 180 228 219 151 208 132 187 170 190 202 223 212 214 210 233 33 279 172 192 189 212 208 185 165 181 155 171 189 212 225 231 214 219 196 196 204 234 215 206 172 190 158 216 207 220 233 162 208 245 253 15 314 309 279 322 291 254 231 246 227 246 262 249 247 228 178
203 252 160 200 197 229 224 214 214 215 211 209 218 213 213 227 211 208 197 223 195 204 215 225 207 143 205 165 193 200 212 218 215 160 194 225 241 286 220 194 189 202 223 94 182 163 167 180 188 192 204 225 233 247 69 113 88 185 218 196 202 206 200 202 214 198 217 217 168 219 226 253 256 245 242 251 242 237 259 267 251 244 241 244 236 228 214 191
311 238 164 200 126 238 244 219 236 213 220 182 220 167 218 215 215 231 177 227 209 206 215 217 175 181 202 197 215 226 211 216 239 249 204 206 227 204 328 191 220 219 79 61 146 106 78 197 206 206 211 223 234 237 183 154 180 204 206 204 202 194 194 191 199 220 203 103 241 238 229 241 254 227 219 230 239 243 254 254 248 261 253 226 217 215 207 193
232 254 248 227 231 192 215 240 219 242 248 193 215 178 215 210 209 219 154 210 173 205 204 229 220 221 206 209 209 227 193 219 182 223 227 226 155 303 147 7 200 200 148 206 212 182 170 212 212 212 224 227 232 239 171 192 193 201 206 202 198 198 191 198 215 226 198 200 226 243 210 226 248 243 212 209 205 214 221 231 222 205 247 180 183 187 188 204
243 324 275 339 215 238 215 232 209 214 235 220 224 214 217 206 211 207 188 170 211 202 196 219 212 215 222 214 212 225 214 210 228 220 216 200 189 136 201 25 250 121 164 171 178 194 142 241 206 207 224 229 235 237 201 204 221 221 211 208 200 191 196 204 215 219 214 219 232 246 228 224 237 244 205 206 200 219 227 161 132 173 201 188 183 193 208 216
204 199 261 243 201 262 319 322 221 188 224 199 220 214 216 211 216 201 201 184 197 213 193 219 219 216 218 220 216 221 217 220 216 221 211 210 212 190 212 193 134 347 162 201 184 258 180 219 211 216 229 234 237 237 214 219 218 227 226 220 206 202 205 207 214 221 220 233 236 240 250 260 256 117 169 185 202 223 181 219 226 231 224 200 207 217 224 224
291 139 102 333 308 240 250 252 232 189 210 200 218 208 224 219 230 209 219 198 207 199 198 219 224 232 225 223 226 232 229 228 226 229 209 193 216 199 189 231 163 166 180 192 180 248 179 262 47 145 231 238 239 236 222 212 223 240 232 219 218 212 214 215 216 217 204 217 228 245 257 252 258 132 170 180 190 212 230 235 229 235 229 216 212 225 227 230
224 298 145 296 265 188 226 191 211 180 222 188 189 199 203 219 223 194 244 238 231 225 208 216 227 232 234 228 225 227 233 237 242 253 247 217 239 240 213 187 192 175 177 198 189 185 179 194 211 199 229 233 239 234 223 151 212 251 237 227 217 216 212 213 227 226 218 209 213 216 232 240 224 135 151 208 185 217 228 225 223 226 217 204 210 217 222 227